Home > Weather > Detroit > Past weeks

Flag for USA Past Weather in Detroit, Michigan, USA — Yesterday and Last 2 Weeks

Now
71 °F

Clear.


Feels Like: 69 °F
Forecast: 70 / 90 °F
Wind: 7 mph from West

Location: Detroit City Airport

Current Time: Jun 27, 2016 at 7:26:13 AM

Latest Report: Jun 27, 2016 at 6:53 AM


Visibility: 10 mi

Pressure: 29.97 "Hg

Humidity: 87%

Dew Point: 67 °F

Location of DetroitLocation

Past Weather in Detroit — Graph

°F

Detroit Temperature Yesterday

Maximum temperature yesterday: 91 °F (at 3:53 PM)
Minimum temperature yesterday: 68 °F (at 3:53 AM)
Average temperature yesterday: 80 °F

High & Low Weather Summary for the Past Weeks

 TemperatureHumidityPressure
High91 °F (Jun 20, 3:53 PM)96% (Jun 16, 6:02 PM)30.28 "Hg (Jun 16, 6:02 PM)
Low52 °F (Jun 13, 5:53 AM)22% (Jun 12, 3:53 PM)29.64 "Hg (Jun 16, 12:53 PM)
Average72 °F53%29.99 "Hg
* Reported Jun 12 5:53 AM — Jun 27 5:53 AM, Detroit, Weather by CustomWeather, © 2016

Note: Actual official high and low records may vary slightly from our data, if they occured in-between our weather recording intervals... More about our weather records

Advertising

Detroit Weather History for the Previous 24 Hours

Scroll right to see more
 ConditionsComfort  
Time TempWeatherWind HumidityBarometerVisibility
5:53 AM
Mon, Jun 27
71 °FClear.8 mph87%29.96 "Hg10 mi
4:53 AM72 °FClear.7 mph87%29.97 "Hg10 mi
3:53 AM73 °FClear.8 mph88%29.97 "Hg10 mi
2:53 AM74 °FClear.6 mph82%29.97 "Hg10 mi
1:53 AM76 °FClear.7 mph77%29.98 "Hg10 mi
12:53 AM78 °FClear.8 mph74%29.97 "Hg10 mi
11:53 PM
Sun, Jun 26
79 °FClear.7 mph77%29.96 "Hg10 mi
10:53 PM79 °FClear.6 mph77%29.97 "Hg10 mi
9:53 PM80 °FSunny.7 mph74%29.92 "Hg10 mi
8:53 PM81 °FSunny.8 mph69%29.92 "Hg10 mi
7:53 PM85 °FLight rain. Partly sunny.13 mph61%29.90 "Hg10 mi
6:53 PM88 °FScattered clouds.16 mph54%29.90 "Hg10 mi
5:53 PM90 °FPartly sunny.14 mph48%29.91 "Hg10 mi
4:53 PM91 °FScattered clouds.13 mph50%29.92 "Hg10 mi
3:53 PM91 °FSunny.18 mph49%29.93 "Hg10 mi
2:53 PM90 °FPassing clouds.14 mph50%29.93 "Hg10 mi
1:53 PM88 °FPassing clouds.9 mph52%29.97 "Hg10 mi
12:53 PM86 °FPartly sunny.12 mph53%30.01 "Hg10 mi
11:53 AM88 °FSunny.14 mph50%30.02 "Hg10 mi
10:53 AM85 °FSunny.14 mph51%30.02 "Hg10 mi
9:53 AM82 °FPassing clouds.10 mph55%30.04 "Hg10 mi
8:53 AM77 °FSunny.8 mph62%30.05 "Hg10 mi
7:53 AM74 °FSunny.7 mph69%30.04 "Hg10 mi
Weather by CustomWeather, © 2016

See weather overviewHow to use our weather pages